• Join FlightAware (Why Join?)
  • Login
  • US Flag GB Flag 
14:55 EDT


 

Airport Tracker/Info


-or-


 

Live Flight TrackerFlight Track Log ✈ ASQ5678 ✈ 13-Jan-2014 ✈ KEWR - KCVG

Flight Track Log - Related Links

Times and Time Zones

All times are in EST time to prevent confusion due to time zone crossing. See the ASQ5678 flight status page for this flight to view local times or setup timezone preferences in your user account.

Time Position Orientation Groundspeed Altitude Reporting Facility
EST Latitude Longitude Course Direction KTS MPH feet Rate Location/Type
18:24 40.6500 -74.1833 269° West 172 198 2,500  Level New York TRACON
18:26 40.6483 -74.3733 269° West 240 276 8,400 2,400 Climbing New York Center
18:27 40.6356 -74.4492 258° West 240 276 10,800 1,800 Climbing New York Center
18:28 40.6428 -74.5536 275° West 261 300 12,000 1,500 Climbing New York Center
18:29 40.6533 -74.6772 276° West 304 350 13,800 1,980 Climbing New York Center
18:30 40.6625 -74.7761 277° West 317 365 16,000 2,280 Climbing New York Center
18:31 40.6628 -74.8856 270° West 289 333 18,400 1,920 Climbing New York Center
18:32 40.6369 -74.9661 247° West 274 315 19,900 1,500 Climbing New York Center
18:33 40.6047 -75.0569 245° Southwest 269 310 21,500 1,500 Climbing New York Center
18:34 40.5719 -75.1506 245° Southwest 281 323 23,000 1,200 Climbing New York Center
18:35 40.5414 -75.2469 247° West 286 329 23,900 900 Climbing New York Center
18:36 40.5039 -75.3539 245° Southwest 306 352 24,800 900 Climbing New York Center
18:37 40.4661 -75.4658 246° West 324 373 25,700 900 Climbing New York Center
18:38 40.4264 -75.5750 244° Southwest 330 380 26,700 960 Climbing New York Center
18:39 40.3883 -75.6867 246° West 336 387 27,700 900 Climbing New York Center
18:40 40.3525 -75.7986 247° West 330 380 28,600 900 Climbing New York Center
18:41 40.3064 -75.9014 240° Southwest 330 380 29,600 1,020 Climbing New York Center
18:42 40.2536 -76.0064 237° Southwest 335 386 30,700 1,020 Climbing New York Center
18:43 40.2053 -76.1114 239° Southwest 340 391 31,700 900 Climbing New York Center
18:44 40.1656 -76.2033 241° Southwest 340 391 32,600 960 Climbing New York Center
18:45 40.1081 -76.3211 237° Southwest 345 397 33,700 1,020 Climbing New York Center
18:46 40.0614 -76.4233 239° Southwest 345 397 34,700 960 Climbing New York Center
18:47 40.0125 -76.5278 239° Southwest 345 397 35,700 600 Climbing New York Center
18:48 39.9658 -76.6294 239° Southwest 345 397 36,000 120 Climbing New York Center
18:49 39.9169 -76.7311 238° Southwest 345 397 36,000  Level New York Center
18:50 39.8569 -76.8536 237° Southwest 341 392 36,000  Level Washington Center
18:51 39.8100 -76.9583 240° Southwest 341 392 36,000  Level Washington Center
18:52 39.7631 -77.0600 239° Southwest 341 392 36,000  Level Washington Center
18:53 39.7117 -77.1642 237° Southwest 341 392 36,000  Level Washington Center
18:54 39.6625 -77.2708 239° Southwest 341 392 36,000  Level Washington Center
18:55 39.6131 -77.3747 238° Southwest 341 392 36,000  Level Washington Center
18:56 39.5636 -77.4786 238° Southwest 341 392 36,000  Level Washington Center
18:57 39.5139 -77.5822 238° Southwest 341 392 36,000  Level Washington Center
18:58 39.4642 -77.6856 238° Southwest 341 392 36,000  Level Washington Center
18:59 39.4144 -77.7861 237° Southwest 341 392 36,000  Level Washington Center
19:00 39.3689 -77.8922 241° Southwest 341 392 36,000  Level Washington Center
19:01 39.3269 -77.9983 243° Southwest 341 392 36,000  Level Washington Center
19:02 39.2853 -78.1042 243° Southwest 336 387 36,000  Level Washington Center
19:03 39.2414 -78.2072 241° Southwest 336 387 36,000  Level Washington Center
19:04 39.1994 -78.3128 243° Southwest 331 381 36,000  Level Washington Center
19:05 39.1575 -78.4208 243° Southwest 331 381 36,000  Level Washington Center
19:06 39.1153 -78.5264 243° Southwest 336 387 36,000  Level Washington Center
19:07 39.0708 -78.6342 242° Southwest 341 392 36,000  Level Washington Center
19:08 39.0286 -78.7367 242° Southwest 341 392 36,000  Level Washington Center
19:09 38.9864 -78.8417 243° Southwest 336 387 36,000  Level Washington Center
19:10 38.9439 -78.9439 242° Southwest 336 387 36,000  Level Washington Center
19:11 38.9197 -79.0547 254° West 331 381 36,000  Level Washington Center
19:12 38.9081 -79.1717 263° West 331 381 36,000  Level Washington Center
19:13 38.8983 -79.2914 264° West 336 387 36,000  Level Washington Center
19:14 38.8883 -79.4108 264° West 336 387 36,000  Level Washington Center
19:15 38.8761 -79.5247 262° West 336 387 36,000 -60 Level Washington Center
19:16 38.8675 -79.6603 265° West 343 395 35,900 -480 Descending Washington Center
19:17 38.8575 -79.7717 263° West 338 389 35,100 -480 Descending Washington Center
19:18 38.8475 -79.8725 263° West 328 377 35,000 -120 Descending Washington Center
19:19 38.8386 -79.9289 259° West 326 375 35,000  Level Indianapolis Center
19:20 38.8267 -80.0461 263° West 330 380 35,000  Level Indianapolis Center
19:21 38.8164 -80.1647 264° West 334 384 35,000  Level Indianapolis Center
19:22 38.8147 -80.2836 269° West 334 384 35,000  Level Indianapolis Center
19:23 38.8111 -80.4258 268° West 333 383 35,000  Level Indianapolis Center
19:24 38.8078 -80.5419 268° West 329 379 35,000  Level Indianapolis Center
19:25 38.8042 -80.6611 268° West 334 384 35,000  Level Indianapolis Center
19:26 38.8006 -80.7789 268° West 332 382 35,000  Level Indianapolis Center
19:27 38.7969 -80.8983 268° West 334 384 35,000  Level Indianapolis Center
19:28 38.7928 -81.0194 268° West 338 389 35,000  Level Indianapolis Center
19:29 38.7889 -81.1381 268° West 335 386 35,000 -540 Level Indianapolis Center
19:30 38.7850 -81.2533 268° West 327 376 33,900 -1,620 Descending Indianapolis Center
19:31 38.7803 -81.3900 268° West 322 371 31,700 -1,620 Descending Indianapolis Center
19:32 38.7758 -81.5050 267° West 334 384 30,700 -1,020 Descending Indianapolis Center
19:33 38.7706 -81.6342 267° West 355 409 29,600 -1,080 Descending Indianapolis Center
19:34 38.7658 -81.7653 267° West 366 421 28,600 -1,020 Descending Indianapolis Center
19:35 38.7608 -81.8942 267° West 368 423 27,600 -1,140 Descending Indianapolis Center
19:36 38.7472 -82.0550 264° West 378 435 26,300 -1,140 Descending Indianapolis Center
19:37 38.7139 -82.1800 251° West 372 428 25,300 -1,020 Descending Indianapolis Center
19:38 38.6817 -82.3000 251° West 361 415 24,300 -660 Descending Indianapolis Center
19:39 38.6500 -82.4186 251° West 355 409 24,000 -360 Descending Indianapolis Center
19:40 38.6186 -82.5367 251° West 354 407 23,600 -540 Descending Indianapolis Center
19:41 38.5814 -82.6747 251° West 354 407 23,000 -300 Descending Indianapolis Center
19:43 38.5811 -82.8067 270° West 369 425 23,000 -120 Level Indianapolis Center
19:44 38.5847 -82.9386 272° West 372 428 22,800 -1,020 Descending Indianapolis Center
19:45 38.5897 -83.0675 273° West 367 422 21,000 -1,800 Descending Indianapolis Center
19:46 38.5928 -83.1986 272° West 370 426 19,200 -2,100 Descending Indianapolis Center
19:47 38.5978 -83.3275 273° West 366 421 16,800 -2,280 Descending Indianapolis Center
19:48 38.6006 -83.4542 272° West 359 413 14,600 -2,100 Descending Indianapolis Center
19:49 38.6050 -83.5992 272° West 350 403 12,600 -1,680 Descending Indianapolis Center
19:50 38.6092 -83.7158 273° West 333 383 11,200 -1,200 Descending Indianapolis Center
19:51 38.6122 -83.8322 272° West 330 380 10,200 -540 Descending Indianapolis Center
19:52 38.6253 -83.9467 278° West 328 377 10,100 -120 Descending Indianapolis Center
19:53 38.6758 -84.0411 304° West 337 388 10,000 -60 Descending Indianapolis Center
19:54 38.7286 -84.1431 304° West 342 394 10,000  Level Indianapolis Center
19:55 38.7808 -84.2464 303° West 345 397 10,000  Level Indianapolis Center
19:56 38.8436 -84.3664 304° West 339 390 10,000  Level Indianapolis Center
19:57 38.8939 -84.4639 304° West 329 379 10,000 -420 Level Indianapolis Center
19:58 38.9414 -84.5322 312° West 267 307 9,200 -900 Descending Indianapolis Center
19:59 39.0244 -84.5397 356° North 296 341 8,200 -1,140 Descending Indianapolis Center
20:00 39.1061 -84.5414 359° North 296 341 6,900 -1,440 Descending Indianapolis Center
20:01 39.1794 -84.5403 North 274 315 5,300 -1,620 Descending Indianapolis Center
20:02 39.2447 -84.5544 350° North 264 304 3,700 -1,140 Descending Indianapolis Center
20:03 39.2436 -84.6378 269° West 244 281 3,000 -420 Descending Indianapolis Center
20:05 39.1333 -84.6500 185° South 198 228 2,500 -480 Descending Cincinnati TRACON
20:06 39.1000 -84.6500 180° South 107 123 1,700 -720 Descending Cincinnati TRACON
20:07 39.0667 -84.6500 180° South 119 137 1,100 -600 Descending Cincinnati TRACON
20:09 39.0488 -84.6678 195° South  Level Estimated